Find Starlink 40

NORAD ID: 44258 Int'l Des: 2019-029 Owner: SPXS Country: US Constellation: starlink decayed
LEOCIRCULAR
Vis

Historical Track — Sep 5, 2020

Loading 3D Globe...

About Starlink 40

Description loading...

Altitude History

Loading altitude history...

Two-Line Element Set

1 44258U 19029Z 20249.78646646 .99999999 12507-4 46875-3 0 9992
2 44258 52.9853 168.5270 0024929 165.7220 288.7645 16.55583557 71755
Epoch: Sep 5, 2020 • Age: 49812 hours

Current Status

Position data unavailable
Launch Date May 24, 2019
Age 6.9 years
Decay Date Sep 5, 2020
Type internet

Technical Details

Classification Payload
Mass 227.00 kg
Dry Mass 219.00 kg
Total Mass 227.00 kg
Length 0.20 m
Diameter 2.80 m
Span 9.00 m
Shape Box + pan
Manufacturer SPXS
Bus Type Starlink
Phase Status Unknown Transfer Status
Owner/State SPXS/US

Most Searched